Location: Cutler
(25.6150°N, 80.3110°W)
Time: 02:02:13
(UTC-04:00)

Vanguard 2 Rocket - All Passes

Search period start: 21 April 2018 00:00
Search period end: 01 May 2018 00:00
Orbit: 553 x 3328 km, 32.9° (Epoch: 20 April)

Date Brightness Start Highest point End Pass type
(mag) Time Alt. Az. Time Alt. Az. Time Alt. Az.
21 Apr - 01:51:17 10° S 01:59:41 20° SE 02:10:43 10° E visible
21 Apr - 04:00:21 10° SW 04:14:25 62° SE 04:34:15 10° ENE visible
21 Apr - 06:14:58 10° WSW 06:33:02 80° NNW 06:53:13 10° ENE visible
21 Apr - 08:33:29 10° W 08:54:00 69° N 09:10:41 10° E daylight
21 Apr - 10:53:39 10° WNW 11:13:34 88° NNE 11:26:04 10° ESE daylight
21 Apr - 13:14:34 10° WNW 13:29:05 42° SW 13:37:55 10° SSE daylight
22 Apr - 03:01:24 10° SSW 03:13:24 47° SE 03:31:12 10° ENE visible
22 Apr - 05:14:18 10° WSW 05:30:28 89° NNW 05:51:16 10° ENE visible
22 Apr - 07:31:21 10° W 07:50:59 69° N 08:09:34 10° E daylight
22 Apr - 09:50:53 10° WNW 10:11:37 78° NNE 10:26:08 10° ESE daylight
22 Apr - 12:11:14 10° WNW 12:28:53 60° SW 12:39:30 10° SE daylight
22 Apr - 14:35:29 10° W 14:42:02 15° SW 14:47:11 10° SSW daylight
23 Apr - 02:03:17 10° S 02:13:03 32° SE 02:27:23 10° E visible
23 Apr - 04:14:19 10° SW 04:28:27 78° SSE 04:48:54 10° ENE visible
23 Apr - 06:29:49 10° W 06:47:56 73° N 07:07:59 10° ENE visible
23 Apr - 08:48:25 10° WNW 09:09:03 72° N 09:25:38 10° E daylight
23 Apr - 11:08:14 10° WNW 11:27:57 77° SSW 11:40:26 10° SE daylight
23 Apr - 13:30:07 10° W 13:42:34 28° SW 13:50:55 10° S daylight
24 Apr - 01:06:28 10° SSE 01:13:15 18° SE 01:22:15 10° E visible
24 Apr - 03:14:59 10° SW 03:27:07 62° SE 03:46:06 10° ENE visible
24 Apr - 05:28:56 10° WSW 05:45:08 79° NNW 06:05:55 10° ENE visible
24 Apr - 07:46:21 10° W 08:06:06 69° N 08:24:33 10° E daylight
24 Apr - 10:05:32 10° WNW 10:26:17 90° NNE 10:40:45 10° ESE daylight
24 Apr - 12:26:10 10° WNW 12:42:36 44° SW 12:53:05 10° SSE daylight
25 Apr - 02:16:19 10° SSW 02:26:32 45° SE 02:42:51 10° ENE visible
25 Apr - 04:28:40 10° WSW 04:42:49 88° NNW 05:03:29 10° ENE visible
25 Apr - 06:44:48 10° W 07:02:59 69° N 07:22:54 10° E daylight
25 Apr - 09:03:12 10° WNW 09:23:57 80° NNE 09:40:28 10° ESE daylight
25 Apr - 11:22:54 10° WNW 11:41:58 60° SW 11:54:25 10° SE daylight
25 Apr - 13:47:04 10° W 13:55:55 18° SW 14:02:42 10° SSW daylight
26 Apr - 01:18:27 10° S 01:26:37 29° SE 01:39:00 10° E visible
26 Apr - 03:29:01 10° SW 03:41:11 79° SSE 04:00:44 10° ENE visible
26 Apr - 05:43:47 10° W 06:00:03 72° N 06:20:43 10° ENE visible
26 Apr - 08:01:15 10° WNW 08:21:08 73° NNE 08:39:31 10° E daylight
26 Apr - 10:20:07 10° WNW 10:40:36 76° SSW 10:55:04 10° SE daylight
26 Apr - 12:41:43 10° W 12:56:03 31° SW 13:06:00 10° S daylight
27 Apr - 00:22:01 10° SSE 00:27:12 16° SE 00:33:54 10° E visible
27 Apr - 02:29:58 10° SW 02:40:17 62° SE 02:57:43 10° ENE visible
27 Apr - 04:43:20 10° W 04:57:31 77° NNW 05:18:09 10° ENE visible
27 Apr - 06:59:45 10° WNW 07:18:05 70° N 07:37:54 10° E daylight
27 Apr - 09:17:49 10° WNW 09:38:34 89° SSW 09:55:04 10° ESE daylight
27 Apr - 11:37:50 10° WNW 11:55:39 45° SW 12:07:54 10° SSE daylight
28 Apr - 01:31:31 10° SSW 01:40:07 43° SE 01:54:28 10° ENE visible
28 Apr - 03:43:26 10° WSW 03:55:36 86° NNW 04:15:19 10° ENE visible
28 Apr - 05:58:43 10° W 06:15:06 69° N 06:35:41 10° E visible
28 Apr - 08:15:58 10° WNW 08:35:59 81° NNE 08:54:20 10° ESE daylight
28 Apr - 10:34:47 10° WNW 10:54:35 60° SW 11:08:58 10° SE daylight
28 Apr - 12:58:35 10° W 13:09:26 20° SW 13:17:50 10° S daylight
29 Apr - 00:33:51 10° S 00:40:35 27° SE 00:50:48 10° E visible
29 Apr - 02:44:04 10° WSW 02:54:24 80° SSE 03:12:21 10° ENE visible
29 Apr - 04:58:11 10° W 05:12:28 70° N 05:32:59 10° ENE visible
29 Apr - 07:14:34 10° WNW 07:33:05 74° NNE 07:52:53 10° E daylight
29 Apr - 09:32:24 10° WNW 09:52:51 75° SSW 10:09:18 10° SE daylight
29 Apr - 11:53:23 10° W 12:09:08 32° SW 12:20:44 10° S daylight
29 Apr - 23:37:57 10° SSE 23:41:27 13° SE 23:45:44 10° ESE night (unlit)
30 Apr - 01:45:14 10° SW 01:53:55 61° SE 02:09:20 10° ENE visible
30 Apr - 03:58:08 10° W 04:10:20 75° NNW 04:30:00 10° ENE visible
30 Apr - 06:13:37 10° WNW 06:30:11 69° N 06:50:43 10° E visible
30 Apr - 08:30:34 10° WNW 08:50:33 88° SSW 09:08:53 10° ESE daylight
30 Apr - 10:49:44 10° WNW 11:08:17 46° SW 11:22:22 10° SSE daylight
30 Apr - 13:19:46 10° WSW 13:22:56 11° SW 13:25:53 10° SW daylight
